DLH09X EDDM-LFBO

Flight info

Callsign DLH09X
Flight time 1h 26m
Altitude 37000
Route ALG2S ALG Y109 UMTEX Y100 TRA DCT LUTIX DCT BENOT DCT NEMOS DCT NINTU DCT MEBAK DCT REPSI DCT LERGA/N0423F330 DCT MINSO DCT NARAK
Aircraft A320/M-SDE2E3FGIJ1LORWXYZ/HB1

Departure

Time 2026-05-07 12:16
Airport Munich Airport (EDDM)

Arrival

Time 2026-05-07 13:42
Airport Toulouse-Blagnac Airport (LFBO)
Time Latitude Longitude Altitude Speed Heading
2026-05-07 11:35 48.35465 11.80011 1481 ft 0 kts 263°
2026-05-07 11:35 48.35507 11.80005 1481 ft 0 kts 263°
2026-05-07 12:05 48.35507 11.80006 1485 ft 1 kts 263°
2026-05-07 12:05 48.35511 11.80041 1481 ft 4 kts 251°
2026-05-07 12:06 48.35523 11.80075 1471 ft 4 kts 219°
2026-05-07 12:06 48.35542 11.80087 1480 ft 1 kts 174°
2026-05-07 12:10 48.35522 11.80090 1479 ft 8 kts 173°
2026-05-07 12:10 48.35447 11.80104 1476 ft 10 kts 173°
2026-05-07 12:11 48.35382 11.80121 1481 ft 9 kts 166°
2026-05-07 12:11 48.35329 11.80133 1481 ft 7 kts 174°
2026-05-07 12:11 48.35247 11.80146 1479 ft 15 kts 173°
2026-05-07 12:11 48.35150 11.80163 1478 ft 0 kts 173°
2026-05-07 12:12 48.35120 11.80160 1485 ft 12 kts 204°
2026-05-07 12:12 48.35097 11.80032 1478 ft 14 kts 263°
2026-05-07 12:12 48.35085 11.79883 1475 ft 15 kts 264°
2026-05-07 12:12 48.35073 11.79723 1481 ft 15 kts 263°
2026-05-07 12:13 48.34987 11.79670 1471 ft 16 kts 175°
2026-05-07 12:13 48.34876 11.79690 1473 ft 17 kts 173°
2026-05-07 12:13 48.34760 11.79710 1478 ft 16 kts 173°
2026-05-07 12:13 48.34673 11.79642 1480 ft 16 kts 233°
2026-05-07 12:14 48.34607 11.79506 1480 ft 17 kts 233°
2026-05-07 12:14 48.34535 11.79362 1481 ft 18 kts 233°
2026-05-07 12:14 48.34459 11.79207 1482 ft 19 kts 233°
2026-05-07 12:14 48.34389 11.79038 1479 ft 19 kts 246°
2026-05-07 12:15 48.34356 11.78839 1482 ft 22 kts 262°
2026-05-07 12:15 48.34318 11.78347 1482 ft 81 kts 263°
2026-05-07 12:15 48.34229 11.77202 1486 ft 137 kts 263°
2026-05-07 12:15 48.34110 11.75654 1922 ft 150 kts 264°
2026-05-07 12:16 48.33997 11.74097 2714 ft 151 kts 266°
2026-05-07 12:16 48.33880 11.72438 3101 ft 171 kts 266°
2026-05-07 12:16 48.33753 11.70557 3449 ft 190 kts 265°
2026-05-07 12:16 48.33601 11.68461 3827 ft 211 kts 264°
2026-05-07 12:17 48.33431 11.66229 4579 ft 219 kts 264°
2026-05-07 12:17 48.33254 11.63938 5343 ft 227 kts 264°
2026-05-07 12:17 48.33069 11.61460 5775 ft 249 kts 264°
2026-05-07 12:17 48.32881 11.58831 6586 ft 256 kts 264°
2026-05-07 12:18 48.32689 11.56155 7443 ft 260 kts 264°
2026-05-07 12:18 48.32485 11.53440 8324 ft 263 kts 263°
2026-05-07 12:18 48.32281 11.50698 9205 ft 266 kts 264°
2026-05-07 12:18 48.32081 11.47913 10068 ft 269 kts 264°
2026-05-07 12:19 48.31870 11.45129 10824 ft 273 kts 263°
2026-05-07 12:19 48.31657 11.42251 11667 ft 274 kts 263°
2026-05-07 12:19 48.31450 11.39396 12537 ft 275 kts 264°
2026-05-07 12:19 48.31244 11.36550 13255 ft 281 kts 263°
2026-05-07 12:20 48.31020 11.33578 14003 ft 284 kts 263°
2026-05-07 12:20 48.30757 11.30619 14674 ft 288 kts 257°
2026-05-07 12:20 48.30109 11.27755 15250 ft 296 kts 245°
2026-05-07 12:20 48.29041 11.25029 15379 ft 318 kts 239°
2026-05-07 12:21 48.27811 11.22112 15744 ft 331 kts 239°
2026-05-07 12:21 48.26570 11.19173 16317 ft 337 kts 239°
2026-05-07 12:21 48.25323 11.16220 16917 ft 341 kts 239°
2026-05-07 12:21 48.24032 11.13157 17563 ft 344 kts 239°
2026-05-07 12:22 48.22748 11.10107 18209 ft 348 kts 239°
2026-05-07 12:22 48.21453 11.07026 18772 ft 351 kts 239°
2026-05-07 12:22 48.20147 11.03914 19311 ft 354 kts 239°
2026-05-07 12:22 48.18827 11.00775 19862 ft 358 kts 239°
2026-05-07 12:23 48.17493 10.97609 20380 ft 361 kts 239°
2026-05-07 12:23 48.16145 10.94414 20896 ft 365 kts 239°
2026-05-07 12:23 48.14783 10.91195 21408 ft 368 kts 239°
2026-05-07 12:23 48.13401 10.87945 21900 ft 371 kts 239°
2026-05-07 12:24 48.11999 10.84651 22371 ft 376 kts 239°
2026-05-07 12:24 48.10661 10.81351 22827 ft 378 kts 244°
2026-05-07 12:24 48.09654 10.77661 23307 ft 380 kts 255°
2026-05-07 12:24 48.08935 10.73838 23745 ft 383 kts 255°
2026-05-07 12:25 48.08216 10.70051 24158 ft 385 kts 255°
2026-05-07 12:25 48.07464 10.66128 24552 ft 388 kts 255°
2026-05-07 12:25 48.06715 10.62237 24947 ft 391 kts 255°
2026-05-07 12:25 48.05971 10.58370 25342 ft 394 kts 255°
2026-05-07 12:26 48.05213 10.54427 25720 ft 396 kts 255°
2026-05-07 12:26 48.04452 10.50466 26101 ft 398 kts 255°
2026-05-07 12:26 48.03680 10.46467 26494 ft 401 kts 255°
2026-05-07 12:26 48.02904 10.42458 26866 ft 403 kts 255°
2026-05-07 12:27 48.02122 10.38424 27241 ft 406 kts 255°
2026-05-07 12:27 48.01333 10.34372 27610 ft 408 kts 255°
2026-05-07 12:27 48.00535 10.30292 27986 ft 410 kts 255°
2026-05-07 12:27 47.99726 10.26190 28345 ft 413 kts 254°
2026-05-07 12:28 47.98833 10.22110 28690 ft 416 kts 252°
2026-05-07 12:28 47.97843 10.18034 28984 ft 419 kts 251°
2026-05-07 12:28 47.96793 10.13955 29306 ft 422 kts 250°
2026-05-07 12:28 47.95720 10.09858 29643 ft 425 kts 250°
2026-05-07 12:29 47.94648 10.05742 29973 ft 427 kts 250°
2026-05-07 12:29 47.93578 10.01593 30264 ft 430 kts 251°
2026-05-07 12:29 47.92516 9.97426 30566 ft 431 kts 251°
2026-05-07 12:29 47.91456 9.93232 30845 ft 432 kts 251°
2026-05-07 12:30 47.90396 9.89033 31127 ft 434 kts 251°
2026-05-07 12:30 47.89340 9.84825 31400 ft 435 kts 251°
2026-05-07 12:30 47.88284 9.80605 31777 ft 434 kts 251°
2026-05-07 12:30 47.87238 9.76406 32182 ft 432 kts 251°
2026-05-07 12:31 47.86196 9.72217 32571 ft 430 kts 250°
2026-05-07 12:31 47.85157 9.68045 32961 ft 429 kts 250°
2026-05-07 12:31 47.84129 9.63884 33360 ft 427 kts 252°
2026-05-07 12:31 47.83411 9.59609 33750 ft 425 kts 260°
2026-05-07 12:32 47.82902 9.55277 34122 ft 424 kts 260°
2026-05-07 12:32 47.82391 9.50964 34444 ft 422 kts 260°
2026-05-07 12:32 47.81877 9.46672 34743 ft 422 kts 260°
2026-05-07 12:32 47.81359 9.42383 35018 ft 421 kts 259°
2026-05-07 12:33 47.80310 9.33819 35532 ft 421 kts 259°
2026-05-07 12:33 47.79784 9.29533 35786 ft 421 kts 259°
2026-05-07 12:33 47.79260 9.25249 36017 ft 421 kts 259°
2026-05-07 12:34 47.78734 9.20976 36249 ft 421 kts 259°
2026-05-07 12:34 47.78207 9.16700 36476 ft 421 kts 259°
2026-05-07 12:34 47.77679 9.12417 36701 ft 421 kts 259°
2026-05-07 12:34 47.77152 9.08143 36921 ft 420 kts 259°
2026-05-07 12:35 47.76094 8.99610 37038 ft 418 kts 259°
2026-05-07 12:35 47.75030 8.91126 37036 ft 417 kts 259°
2026-05-07 12:36 47.73952 8.82658 37042 ft 417 kts 259°
2026-05-07 12:36 47.72875 8.74189 37040 ft 417 kts 259°
2026-05-07 12:37 47.71796 8.65721 37043 ft 417 kts 259°
2026-05-07 12:37 47.70707 8.57256 37051 ft 417 kts 259°
2026-05-07 12:38 47.69614 8.48797 37044 ft 417 kts 258°
2026-05-07 12:38 47.67517 8.40816 37046 ft 417 kts 239°
2026-05-07 12:39 47.64168 8.33784 37038 ft 418 kts 235°
2026-05-07 12:39 47.60774 8.26786 37037 ft 418 kts 235°
2026-05-07 12:40 47.57948 8.20977 37040 ft 418 kts 235°
2026-05-07 12:40 47.53973 8.12822 37041 ft 418 kts 235°
2026-05-07 12:41 47.50568 8.05844 37031 ft 418 kts 235°
2026-05-07 12:41 47.47737 8.00055 37036 ft 418 kts 235°
2026-05-07 12:42 47.44322 7.93110 37039 ft 417 kts 235°
2026-05-07 12:42 47.40918 7.86181 37039 ft 417 kts 235°
2026-05-07 12:43 47.37509 7.79263 37041 ft 417 kts 235°
2026-05-07 12:43 47.34086 7.72361 37039 ft 417 kts 235°
2026-05-07 12:44 47.30669 7.65473 37032 ft 416 kts 235°
2026-05-07 12:44 47.27253 7.58586 37036 ft 416 kts 235°
2026-05-07 12:45 47.23840 7.51724 37035 ft 415 kts 235°
2026-05-07 12:45 47.20422 7.44880 37036 ft 415 kts 235°
2026-05-07 12:46 47.16994 7.38049 37037 ft 415 kts 235°
2026-05-07 12:46 47.13489 7.31309 37034 ft 415 kts 233°
2026-05-07 12:47 47.09864 7.24702 37035 ft 415 kts 232°
2026-05-07 12:47 47.06233 7.18135 37036 ft 415 kts 233°
2026-05-07 12:48 47.02623 7.11547 37036 ft 414 kts 233°
2026-05-07 12:48 46.99027 7.04945 37036 ft 414 kts 233°
2026-05-07 12:49 46.95426 6.98358 37027 ft 414 kts 233°
2026-05-07 12:49 46.91824 6.91799 37045 ft 413 kts 233°
2026-05-07 12:50 46.88221 6.85255 37043 ft 412 kts 233°
2026-05-07 12:50 46.84615 6.78745 37045 ft 412 kts 233°
2026-05-07 12:51 46.81001 6.72240 37040 ft 412 kts 233°
2026-05-07 12:51 46.77430 6.65801 37014 ft 411 kts 233°
2026-05-07 12:52 46.73831 6.59324 37021 ft 410 kts 233°
2026-05-07 12:52 46.70232 6.52872 37016 ft 410 kts 233°
2026-05-07 12:53 46.66614 6.46411 37030 ft 409 kts 233°
2026-05-07 12:53 46.63011 6.39986 37022 ft 409 kts 232°
2026-05-07 12:54 46.59410 6.33579 37018 ft 409 kts 232°
2026-05-07 12:54 46.55822 6.27223 37020 ft 409 kts 232°
2026-05-07 12:55 46.52167 6.20755 37021 ft 420 kts 232°
2026-05-07 12:55 46.48421 6.14122 37022 ft 429 kts 232°
2026-05-07 12:56 46.44590 6.07368 37029 ft 432 kts 232°
2026-05-07 12:56 46.40781 6.00696 37010 ft 432 kts 232°
2026-05-07 12:57 46.36958 5.93999 37010 ft 431 kts 232°
2026-05-07 12:57 46.33140 5.87312 37015 ft 431 kts 232°
2026-05-07 12:58 46.29318 5.80620 37020 ft 431 kts 232°
2026-05-07 12:58 46.25485 5.73950 37030 ft 432 kts 232°
2026-05-07 12:59 46.21641 5.67281 37028 ft 432 kts 232°
2026-05-07 12:59 46.17795 5.60621 37036 ft 431 kts 232°
2026-05-07 13:00 46.14041 5.53893 37046 ft 430 kts 237°
2026-05-07 13:00 46.10651 5.46796 37044 ft 430 kts 237°
2026-05-07 13:01 46.07256 5.39719 37036 ft 428 kts 237°
2026-05-07 13:01 46.03862 5.32689 37015 ft 428 kts 236°
2026-05-07 13:02 46.00467 5.25651 37032 ft 428 kts 237°
2026-05-07 13:02 45.97081 5.18623 37033 ft 427 kts 237°
2026-05-07 13:03 45.93686 5.11607 37039 ft 427 kts 236°
2026-05-07 13:03 45.90284 5.04616 37037 ft 427 kts 236°
2026-05-07 13:04 45.86872 4.97639 37035 ft 427 kts 236°
2026-05-07 13:04 45.83472 4.90669 37034 ft 427 kts 236°
2026-05-07 13:05 45.80062 4.83706 37040 ft 426 kts 236°
2026-05-07 13:05 45.76676 4.76813 37038 ft 426 kts 236°
2026-05-07 13:06 45.73261 4.69886 37042 ft 426 kts 236°
2026-05-07 13:06 45.69852 4.62962 37031 ft 426 kts 236°
2026-05-07 13:07 45.66432 4.56038 37029 ft 426 kts 236°
2026-05-07 13:07 45.63010 4.49123 37039 ft 426 kts 236°
2026-05-07 13:08 45.59582 4.42230 37043 ft 425 kts 236°
2026-05-07 13:08 45.56158 4.35353 37044 ft 425 kts 236°
2026-05-07 13:09 45.52720 4.28491 37043 ft 425 kts 236°
2026-05-07 13:09 45.49282 4.21628 37031 ft 425 kts 235°
2026-05-07 13:10 45.45846 4.14782 37031 ft 425 kts 235°
2026-05-07 13:10 45.42414 4.07941 37027 ft 424 kts 235°
2026-05-07 13:11 45.38972 4.01111 37019 ft 425 kts 235°
2026-05-07 13:11 45.35520 3.94296 37014 ft 425 kts 235°
2026-05-07 13:12 45.32061 3.87486 37021 ft 425 kts 235°
2026-05-07 13:12 45.28597 3.80676 37026 ft 425 kts 234°
2026-05-07 13:13 45.25141 3.73868 37014 ft 425 kts 235°
2026-05-07 13:13 45.21739 3.67001 37010 ft 425 kts 236°
2026-05-07 13:14 45.18378 3.60096 37014 ft 425 kts 236°
2026-05-07 13:14 45.14996 3.53220 37011 ft 425 kts 236°
2026-05-07 13:15 45.11594 3.46366 37001 ft 425 kts 235°
2026-05-07 13:15 45.08190 3.39526 37000 ft 425 kts 235°
2026-05-07 13:16 45.04786 3.32693 37003 ft 425 kts 235°
2026-05-07 13:16 45.01380 3.25872 37011 ft 425 kts 235°
2026-05-07 13:17 44.97971 3.19050 37005 ft 425 kts 235°
2026-05-07 13:17 44.94558 3.12234 36993 ft 425 kts 235°
2026-05-07 13:18 44.91144 3.05437 36993 ft 424 kts 235°
2026-05-07 13:18 44.87727 2.98648 36995 ft 425 kts 234°
2026-05-07 13:19 44.84308 2.91860 36992 ft 425 kts 235°
2026-05-07 13:19 44.81044 2.84912 36997 ft 425 kts 237°
2026-05-07 13:20 44.77884 2.77874 37001 ft 426 kts 237°
2026-05-07 13:20 44.74683 2.70858 37007 ft 426 kts 237°
2026-05-07 13:21 44.71450 2.63893 37010 ft 426 kts 236°
2026-05-07 13:21 44.69830 2.60421 36794 ft 423 kts 236°
2026-05-07 13:21 44.68232 2.56990 35850 ft 428 kts 236°
2026-05-07 13:22 44.66606 2.53501 35224 ft 426 kts 237°
2026-05-07 13:22 44.64991 2.50038 34705 ft 421 kts 237°
2026-05-07 13:22 44.63400 2.46615 34161 ft 415 kts 237°
2026-05-07 13:22 44.61829 2.43234 33453 ft 410 kts 237°
2026-05-07 13:23 44.60279 2.39911 32730 ft 405 kts 237°
2026-05-07 13:23 44.58740 2.36624 31992 ft 400 kts 237°
2026-05-07 13:23 44.57220 2.33380 31314 ft 396 kts 236°
2026-05-07 13:23 44.55715 2.30174 30641 ft 392 kts 236°
2026-05-07 13:24 44.54224 2.26998 29971 ft 388 kts 236°
2026-05-07 13:24 44.52746 2.23854 29210 ft 384 kts 236°
2026-05-07 13:24 44.51283 2.20743 28472 ft 381 kts 236°
2026-05-07 13:24 44.49829 2.17661 27733 ft 377 kts 236°
2026-05-07 13:25 44.48388 2.14603 27005 ft 374 kts 236°
2026-05-07 13:25 44.46960 2.11572 26312 ft 371 kts 236°
2026-05-07 13:25 44.45543 2.08566 25622 ft 369 kts 236°
2026-05-07 13:25 44.44137 2.05585 24943 ft 366 kts 236°
2026-05-07 13:26 44.42735 2.02623 24292 ft 364 kts 235°
2026-05-07 13:26 44.41341 1.99686 23649 ft 362 kts 235°
2026-05-07 13:26 44.39955 1.96768 22932 ft 359 kts 236°
2026-05-07 13:26 44.38577 1.93874 22266 ft 356 kts 236°
2026-05-07 13:27 44.37667 1.91967 21836 ft 354 kts 236°
2026-05-07 13:27 44.36307 1.89114 21205 ft 352 kts 235°
2026-05-07 13:27 44.34962 1.86291 20745 ft 345 kts 235°
2026-05-07 13:27 44.33642 1.83520 20324 ft 341 kts 235°
2026-05-07 13:28 44.32335 1.80779 19904 ft 339 kts 235°
2026-05-07 13:28 44.31031 1.78050 19486 ft 336 kts 235°
2026-05-07 13:28 44.29648 1.75439 19076 ft 333 kts 226°
2026-05-07 13:28 44.27917 1.73330 18668 ft 330 kts 214°
2026-05-07 13:29 44.26022 1.71528 18256 ft 329 kts 214°
2026-05-07 13:29 44.24139 1.69731 17819 ft 327 kts 214°
2026-05-07 13:29 44.22270 1.67944 17409 ft 324 kts 214°
2026-05-07 13:29 44.20417 1.66172 17013 ft 322 kts 214°
2026-05-07 13:30 44.18575 1.64412 16611 ft 320 kts 214°
2026-05-07 13:30 44.16751 1.62665 16230 ft 318 kts 214°
2026-05-07 13:30 44.14935 1.60925 15850 ft 316 kts 214°
2026-05-07 13:30 44.13125 1.59195 15456 ft 315 kts 214°
2026-05-07 13:31 44.11316 1.57474 15068 ft 314 kts 214°
2026-05-07 13:31 44.09517 1.55761 14684 ft 313 kts 214°
2026-05-07 13:31 44.07719 1.54053 14295 ft 312 kts 214°
2026-05-07 13:31 44.05929 1.52352 13909 ft 312 kts 214°
2026-05-07 13:32 44.04139 1.50655 13501 ft 311 kts 214°
2026-05-07 13:32 44.02363 1.48968 13120 ft 309 kts 214°
2026-05-07 13:32 44.00594 1.47287 12738 ft 307 kts 214°
2026-05-07 13:32 43.98719 1.45918 12356 ft 305 kts 200°
2026-05-07 13:33 43.96652 1.45319 11957 ft 305 kts 184°
2026-05-07 13:33 43.94533 1.45491 11532 ft 306 kts 174°
2026-05-07 13:33 43.92417 1.45832 11105 ft 306 kts 175°
2026-05-07 13:33 43.90302 1.46160 10677 ft 306 kts 175°
2026-05-07 13:34 43.88185 1.46484 10257 ft 306 kts 175°
2026-05-07 13:34 43.84009 1.47126 9724 ft 294 kts 175°
2026-05-07 13:34 43.81989 1.47437 9359 ft 291 kts 176°
2026-05-07 13:35 43.79985 1.47744 8983 ft 289 kts 175°
2026-05-07 13:35 43.77992 1.48051 8576 ft 288 kts 175°
2026-05-07 13:35 43.76011 1.48355 8162 ft 287 kts 175°
2026-05-07 13:35 43.74017 1.48657 7675 ft 286 kts 176°
2026-05-07 13:36 43.72040 1.48953 7183 ft 285 kts 176°
2026-05-07 13:36 43.70066 1.49250 6657 ft 286 kts 176°
2026-05-07 13:36 43.68098 1.49550 6210 ft 282 kts 175°
2026-05-07 13:36 43.66189 1.49844 5916 ft 267 kts 175°
2026-05-07 13:37 43.64397 1.50124 5470 ft 258 kts 175°
2026-05-07 13:37 43.62645 1.50393 5109 ft 248 kts 175°
2026-05-07 13:37 43.60958 1.50650 4757 ft 239 kts 174°
2026-05-07 13:37 43.59331 1.50897 4432 ft 235 kts 173°
2026-05-07 13:38 43.57738 1.51138 4341 ft 223 kts 173°
2026-05-07 13:38 43.56236 1.51365 4236 ft 213 kts 173°
2026-05-07 13:38 43.54776 1.51300 3961 ft 211 kts 199°
2026-05-07 13:38 43.53582 1.50147 3711 ft 209 kts 234°
2026-05-07 13:39 43.53074 1.48354 3512 ft 199 kts 265°
2026-05-07 13:39 43.53336 1.46504 2956 ft 207 kts 299°
2026-05-07 13:39 43.54292 1.45083 2610 ft 201 kts 324°
2026-05-07 13:39 43.55391 1.43997 2309 ft 188 kts 327°
2026-05-07 13:40 43.56445 1.42972 1950 ft 184 kts 326°
2026-05-07 13:40 43.57424 1.41927 1748 ft 172 kts 323°
2026-05-07 13:40 43.58320 1.40940 1476 ft 159 kts 325°
2026-05-07 13:40 43.59178 1.40064 1209 ft 148 kts 327°
2026-05-07 13:41 43.59985 1.39227 999 ft 142 kts 324°
2026-05-07 13:41 43.60761 1.38413 798 ft 138 kts 324°
2026-05-07 13:41 43.61504 1.37631 627 ft 133 kts 324°
2026-05-07 13:41 43.62219 1.36874 491 ft 120 kts 325°
2026-05-07 13:42 43.62763 1.36312 483 ft 73 kts 323°
2026-05-07 13:42 43.63082 1.35984 488 ft 51 kts 324°
2026-05-07 13:42 43.63345 1.35704 483 ft 46 kts 323°
2026-05-07 13:42 43.63531 1.35513 485 ft 20 kts 323°
2026-05-07 13:43 43.63608 1.35552 486 ft 14 kts 52°
2026-05-07 13:43 43.63670 1.35666 488 ft 16 kts 53°
2026-05-07 13:43 43.63741 1.35797 489 ft 18 kts 53°
2026-05-07 13:43 43.63813 1.35928 488 ft 14 kts 54°
2026-05-07 13:44 43.63771 1.36037 488 ft 15 kts 143°
2026-05-07 13:44 43.63667 1.36147 492 ft 21 kts 142°
2026-05-07 13:44 43.63545 1.36276 489 ft 23 kts 143°
2026-05-07 13:44 43.63412 1.36415 491 ft 25 kts 142°
2026-05-07 13:45 43.63272 1.36555 488 ft 21 kts 144°
2026-05-07 13:45 43.63149 1.36685 492 ft 23 kts 143°
2026-05-07 13:45 43.63014 1.36825 488 ft 25 kts 143°
2026-05-07 13:45 43.62870 1.36975 491 ft 24 kts 143°
2026-05-07 13:46 43.62862 1.37122 488 ft 19 kts 51°
2026-05-07 13:46 43.62907 1.37206 487 ft 0 kts 58°
2026-05-07 13:46 43.62892 1.37260 490 ft 14 kts 136°
2026-05-07 13:46 43.62885 1.37350 488 ft 11 kts 59°
2026-05-07 13:47 43.62910 1.37391 489 ft 0 kts 48°